TimeCDT,TemperatureF,Dew PointF,Humidity,Sea Level PressureIn,VisibilityMPH,Wind Direction,Wind SpeedMPH,Gust SpeedMPH,PrecipitationIn,Events,Conditions,WindDirDegrees,DateUTC
12:53 AM,71.1,69.1,93,29.88,10.0,Calm,Calm,-,N/A,,Clear,0,2013-07-13 05:53:00
1:53 AM,71.1,69.1,93,29.90,10.0,ESE,8.1,-,N/A,,Clear,110,2013-07-13 06:53:00
2:53 AM,70.0,69.1,97,29.91,10.0,Calm,Calm,-,N/A,,Partly Cloudy,0,2013-07-13 07:53:00
3:25 AM,71.6,69.8,94,29.91,10.0,Calm,Calm,-,N/A,,Mostly Cloudy,0,2013-07-13 08:25:00
3:42 AM,71.6,69.8,94,29.91,10.0,Calm,Calm,-,N/A,,Overcast,0,2013-07-13 08:42:00
3:53 AM,71.1,70.0,96,29.91,10.0,Calm,Calm,-,N/A,,Overcast,0,2013-07-13 08:53:00
4:53 AM,71.1,70.0,96,29.91,10.0,ESE,4.6,-,N/A,,Scattered Clouds,110,2013-07-13 09:53:00
5:53 AM,71.1,69.1,93,29.89,10.0,SSW,4.6,-,N/A,,Partly Cloudy,210,2013-07-13 10:53:00
6:19 AM,71.6,69.8,94,29.90,10.0,SW,3.5,-,N/A,,Mostly Cloudy,220,2013-07-13 11:19:00
6:53 AM,71.1,70.0,96,29.90,10.0,Calm,Calm,-,N/A,,Overcast,0,2013-07-13 11:53:00
7:53 AM,73.0,71.1,93,29.94,10.0,East,4.6,-,N/A,,Overcast,80,2013-07-13 12:53:00
8:13 AM,73.4,71.6,94,29.96,10.0,ENE,4.6,-,N/A,,Overcast,70,2013-07-13 13:13:00
8:53 AM,73.9,71.1,91,29.97,10.0,East,4.6,-,N/A,,Overcast,90,2013-07-13 13:53:00
9:01 AM,73.4,71.6,94,29.97,10.0,ESE,4.6,-,N/A,,Overcast,110,2013-07-13 14:01:00
9:53 AM,77.0,72.0,84,29.97,10.0,ESE,5.8,-,N/A,,Mostly Cloudy,110,2013-07-13 14:53:00
10:53 AM,78.1,69.1,74,29.98,10.0,SSE,5.8,-,N/A,,Partly Cloudy,160,2013-07-13 15:53:00
11:53 AM,79.0,70.0,74,29.97,10.0,Variable,3.5,-,N/A,,Partly Cloudy,0,2013-07-13 16:53:00
12:53 PM,80.1,68.0,67,29.96,10.0,SE,6.9,-,N/A,,Clear,140,2013-07-13 17:53:00
1:53 PM,82.0,70.0,67,29.95,10.0,ESE,3.5,-,N/A,,Clear,110,2013-07-13 18:53:00
2:53 PM,82.0,70.0,67,29.93,10.0,Variable,3.5,-,N/A,,Clear,0,2013-07-13 19:53:00
3:53 PM,82.0,70.0,67,29.93,10.0,ESE,4.6,-,N/A,,Clear,120,2013-07-13 20:53:00
4:53 PM,81.0,70.0,69,29.93,10.0,East,3.5,-,N/A,,Clear,100,2013-07-13 21:53:00
5:53 PM,81.0,71.1,72,29.92,10.0,SE,3.5,-,N/A,,Clear,140,2013-07-13 22:53:00
6:08 PM,80.6,71.6,74,29.93,10.0,SSE,4.6,-,N/A,Thunderstorm,Clear,150,2013-07-13 23:08:00
6:46 PM,73.4,69.8,88,29.95,9.0,NE,18.4,23.0,0.01,Rain-Thunderstorm,Light Thunderstorms and Rain,50,2013-07-13 23:46:00
6:53 PM,72.0,69.1,91,29.94,5.0,NNE,9.2,23.0,0.01,Rain-Thunderstorm,Heavy Thunderstorms and Rain,20,2013-07-13 23:53:00
7:04 PM,71.6,69.8,94,29.94,10.0,WNW,4.6,-,0.00,Rain,Light Rain,290,2013-07-14 00:04:00
7:53 PM,72.0,70.0,93,29.95,10.0,Calm,Calm,-,0.00,,Partly Cloudy,0,2013-07-14 00:53:00
8:53 PM,71.1,70.0,96,29.96,10.0,North,3.5,-,N/A,,Scattered Clouds,350,2013-07-14 01:53:00
9:53 PM,73.0,71.1,93,29.97,10.0,NNE,5.8,-,N/A,,Scattered Clouds,20,2013-07-14 02:53:00
10:34 PM,73.4,71.6,94,29.99,10.0,NNW,4.6,-,N/A,,Overcast,330,2013-07-14 03:34:00
10:53 PM,73.0,71.1,93,29.99,10.0,Calm,Calm,-,N/A,,Overcast,0,2013-07-14 03:53:00
11:02 PM,73.4,71.6,94,30.00,10.0,NNE,3.5,-,N/A,,Overcast,20,2013-07-14 04:02:00
11:53 PM,73.0,71.1,93,29.99,10.0,ENE,5.8,-,N/A,,Overcast,60,2013-07-14 04:53:00